Meath Environmental Platform

Observations

Time Sensor AQI SAQ Temp °C Hum % Pres Pa CO μg/m³ H₂S μg/m³ NO μg/m³ NO₂ μg/m³ O₃ μg/m³ SO₂ μg/m³ CO₂e PPM VOC PPM PM1 μg/m³ PM2.5 μg/m³ PM4 μg/m³ PM10 μg/m³ TPS µm
Thursday 13 August 2026
00:33 Trim Patrick St 3 22 61 73,222 0 11.31 1.11 36.19 43.03 4.03 4.57 9.45 10.39
00:32 Trim Patrick St 3 22.1 60 73,131 0 11.04 1.09 33.47 50.72 4.27 4.57 9.5 10.45
00:31 Trim Market St 3 22.8 57 57,813 0 0 1.04 16.41 63.52 0 2.14 4.18 6.12
00:31 Trim Patrick St 3 22.1 59 73,043 0 9.77 1.09 22.98 52.69 4.88 5.43 9.54 10.49
00:30 Trim Patrick St 3 22.1 60 72,956 0 9.64 1.09 31.04 46.62 4.72 5.43 10.24 11.27
00:29 Trim Patrick St 3 22.1 60 72,872 0 6.02 1.08 16.51 63.41 4.95 4.57 8.77 9.64
00:28 Trim Patrick St 3 22.2 57 72,819 0 5.38 1.14 16.73 47.39 4.85 4.57 8.97 9.86
00:27 Trim Market St 3 22.8 57 57,751 0 0 1.05 14.94 68.14 0 2.14 4.19 5.41
00:27 Trim Patrick St 3 22.1 58 72,721 0 8.13 1.12 15.33 48.1 4.77 4.57 9.65 10.61
00:26 Trim Patrick St 3 22.2 59 72,620 0 11.51 1.09 30.14 47.35 4.89 4.57 8.07 8.88
00:25 Trim Market St 3 22.9 56 57,698 0 0 1.04 14.36 67.76 0 2.14 4.2 5.41
00:22 Trim Patrick St 3 22.3 60 72,047 0 8.58 1.06 20.43 55.85 5.55 3.71 8.03 8.83
00:21 Trim Market St 3 23 56 57,593 0 0 1.03 15.48 63.73 0 2.14 4.21 5.4
00:20 Trim Patrick St 3 22.3 59 71,884 0 8.84 1.06 28.71 43.94 4.72 4.57 8.79 9.67
00:16 Trim Market St 3 23.1 56 57,549 0 0 1.03 16.33 65.88 0 3.56 5.22 8.95
00:15 Trim Market St 3 23.1 56 57,539 0 0 1.02 15.44 63 0 2.14 4.72 7.53
00:14 Trim Market St 3 23.1 56 57,489 0 0 1.02 16.1 62.26 0 1.43 3.7 4.69
00:12 Trim Market St 3 23.2 56 57,422 0 0 1 15.41 63.75 0 2.14 4.73 6.11
00:10 Trim Market St 3 23.3 56 57,324 0 0 0.99 22.34 65.06 0 2.14 3.72 4.69
00:09 Trim Market St 3 23.3 56 57,221 0 0 0.99 17.65 61.11 0 1.43 4.23 6.11